Miscellaneous Local Product
Issued by NWS Hastings, NE

Home | Current Version | Previous Version | Graphics & Text | Print | Product List | Glossary On
Versions: 1 2 3 4 5 6 7 8 9 10 11 12 13 14 15 16 17 18 19 20 21 22 23 24 25 26 27 28 29 30 31 32 33 34 35 36 37 38 39 40 41 42 43 44 45 46 47 48 49 50
000
AXUS43 KGID 051502
MISGRI

GID CWA HOURLY WEATHER ROUNDUP
NATIONAL WEATHER SERVICE HASTINGS NE
900 AM CST THU MAR 05 2015

NOTE: "FAIR" INDICATES FEW OR NO CLOUDS BELOW 12,000 FEET WITH NO
SIGNIFICANT WEATHER AND/OR OBSTRUCTIONS TO VISIBILITY.

...SOUTH CENTRAL NEBRASKA...

CITY           SKY/WX    TMP DP  RH WIND       PRES   REMARKS
GRAND ISLAND   SUNNY     14   3  61 S12       30.47R WCI   0
HASTINGS       SUNNY     12   0  58 S9        30.45R WCI   0
KEARNEY        SUNNY     12   3  67 S10       30.43R WCI  -1
ORD            SUNNY     13   3  64 S14       30.40R WCI  -2
YORK           SUNNY     10   1  67 S7        30.49R WCI   0
AURORA         SUNNY     12   1  61 S9        30.47R WCI   0
LEXINGTON      SUNNY     13   4  68 S12G17    30.39S WCI  -1
HOLDREGE       SUNNY     11   1  65 S9        30.41R WCI  -2
HEBRON         SUNNY     14   4  65 S7        30.51S WCI   3

...NEBRASKA PANHANDLE...

CITY           SKY/WX    TMP DP  RH WIND       PRES   REMARKS
CHADRON        MOSUNNY    4   2  91 CALM      30.20R
ALLIANCE       SUNNY     18  10  71 W9        30.18R WCI   7
SCOTTSBLUFF    MOSUNNY   17   9  70 NW6       30.20R WCI   9
SIDNEY         SUNNY     23  12  62 W12       30.21R WCI  12

...WESTERN AND NORTH CENTRAL NEBRASKA...

CITY           SKY/WX    TMP DP  RH WIND       PRES   REMARKS
VALENTINE      MOSUNNY   12   5  73 SW7       30.26S WCI   1
AINSWORTH      SUNNY     13   4  69 S16       30.28S WCI  -3
ONEILL         SUNNY     11   6  78 SW7       30.38R WCI   0
BROKEN BOW     SUNNY     12   1  61 S13G23    30.36R WCI  -3
IMPERIAL         N/A     17  10  74 W8        30.29R WCI   7
NORTH PLATTE   SUNNY     13   4  67 S5        30.32S WCI   5
MCCOOK         SUNNY     15   6  67 CALM      30.37R

...EASTERN NEBRASKA...

CITY           SKY/WX    TMP DP  RH WIND       PRES   REMARKS
NORFOLK        SUNNY     12   1  61 S12       30.47R WCI  -2
SO SIOUX CITY  SUNNY      6  -1  73 SE6       30.54R WCI  -4
TEKAMAH        SUNNY      9  -1  64 SE5       30.57R WCI   1
COLUMBUS       SUNNY     12  -6  44 SW6       30.52R WCI   3
ALBION         SUNNY      8   0  70 S3        30.45R
OMAHA EPPLEY   SUNNY      9   0  67 SE5       30.58R WCI   1
OFFUTT AFB     SUNNY     10   1  66 S5        30.57R WCI   1
MILLARD        SUNNY     11   0  61 CALM      30.57R
LINCOLN        SUNNY     11   3  70 S5        30.56R WCI   3
NEBRASKA CITY  SUNNY      9  -2  59 S3        30.56R
BEATRICE       SUNNY     11   2  67 S6        30.54R WCI   2
FALLS CITY     SUNNY     12   0  58 CALM      30.59R

...NORTHERN KANSAS...

CITY           SKY/WX    TMP DP  RH WIND       PRES   REMARKS
GOODLAND       SUNNY     24  13  62 W8        30.30R WCI  15
HILL CITY      SUNNY     13   4  67 CALM      30.42R
NORTON         SUNNY     12   3  67 E5        30.39R WCI   4
PHILLIPSBURG   SUNNY     16   7  67 E6        30.46S WCI   7
SMITH CENTER   SUNNY     16   3  57 SE16      30.48R WCI   0
BELOIT         SUNNY     18   3  53 SE10      30.51R WCI   6
HAYS           SUNNY     18   3  53 CALM      30.44R
RUSSELL        SUNNY     19   9  65 S10       30.44R WCI   7
CONCORDIA      SUNNY     17   6  62 SE10      30.51R WCI   5
SALINA         FAIR      21   5  50 SE12      30.52R WCI   9
TOPEKA         SUNNY     16   3  56 NE3       30.61R



USA.gov is the U.S. government's official web portal to all federal, state and local government web resources and services.